,,PA_Meas_PMT16A,,PR_Meas_QMR101_102,,RH_Meas_QMH101,,SR_Meas_QMS101,,TA_Meas_QMH101,,GenWind,,GenWind,
time,status,PA,status,PR,status,RH,status,SR,status,TA,status,DirAvg,status,SpdAvg,
2012-12-30, 07:26:04,VALID,916.961,VALID,0,VALID,97.5492,VALID,92.6143,VALID,18.9842,VALID,315,VALID,0.815234,
2012-12-30, 07:27:04,VALID,915.421,VALID,0,VALID,97.5569,VALID,94.978,VALID,19.0427,VALID,303,VALID,0.533203,
2012-12-30, 07:28:04,VALID,915.326,VALID,0,VALID,97.5416,VALID,96.697,VALID,19.0427,VALID,302,VALID,0.182031,
2012-12-30, 07:29:04,VALID,915.237,VALID,0,VALID,97.5187,VALID,100.672,VALID,19.0427,VALID,353,VALID,0.601172,
2012-12-30, 07:30:04,VALID,915.219,VALID,0,VALID,97.5187,VALID,104.97,VALID,19.0817,VALID,19,VALID,0.653516,
2012-12-30, 07:31:04,VALID,915.372,VALID,0,VALID,97.5035,VALID,107.119,VALID,19.0608,VALID,350,VALID,0.840234,
2012-12-30, 07:32:04,VALID,915.387,VALID,0,VALID,97.4806,VALID,111.954,VALID,19.1012,VALID,307,VALID,0.591406,
2012-12-30, 07:33:04,VALID,915.383,VALID,0,VALID,97.473,VALID,115.929,VALID,19.1402,VALID,329,VALID,0.673828,
2012-12-30, 07:34:04,VALID,916.513,VALID,0,VALID,97.4577,VALID,118.83,VALID,19.1012,VALID,350,VALID,0.789453,
2012-12-30, 07:35:04,VALID,915.231,VALID,0,VALID,97.4196,VALID,121.194,VALID,19.1778,VALID,30,VALID,1.52539,
2012-12-30, 07:36:04,VALID,915.313,VALID,0,VALID,97.412,VALID,123.665,VALID,19.2377,VALID,18,VALID,0.950391,
2012-12-30, 07:37:04,VALID,915.529,VALID,0,VALID,97.351,VALID,125.814,VALID,19.2377,VALID,1,VALID,0.572656,
2012-12-30, 07:38:04,VALID,915.316,VALID,0,VALID,97.3129,VALID,127.533,VALID,19.2572,VALID,325,VALID,0.7625,
2012-12-30, 07:39:04,VALID,916.013,VALID,0,VALID,97.2672,VALID,130.111,VALID,19.2558,VALID,296,VALID,0.336328,
2012-12-30, 07:40:04,VALID,915.542,VALID,0,VALID,97.2519,VALID,132.797,VALID,19.3143,VALID,297,VALID,0.0472656,
2012-12-30, 07:41:04,VALID,914.915,VALID,0,VALID,97.2672,VALID,134.194,VALID,19.3338,VALID,337,VALID,0.643359,
2012-12-30, 07:42:04,VALID,915.912,VALID,0,VALID,97.2214,VALID,136.235,VALID,19.3923,VALID,359,VALID,0.802344,
2012-12-30, 07:43:04,VALID,915.627,VALID,0,VALID,97.2138,VALID,138.921,VALID,19.4118,VALID,4,VALID,0.0847656,
2012-12-30, 07:44:04,VALID,915.931,VALID,0,VALID,97.2138,VALID,140.855,VALID,19.4523,VALID,2,VALID,0.295703,
2012-12-30, 07:45:04,VALID,915.673,VALID,0,VALID,97.1681,VALID,142.252,VALID,19.4313,VALID,336,VALID,0.919141,
2012-12-30, 07:46:04,VALID,914.671,VALID,0,VALID,97.1071,VALID,143.112,VALID,19.3338,VALID,320,VALID,0.521484,
2012-12-30, 07:47:04,VALID,915.855,VALID,0,VALID,97.1071,VALID,143.864,VALID,19.3338,VALID,315,VALID,0.489453,
2012-12-30, 07:48:04,VALID,917.053,VALID,0,VALID,97.0766,VALID,144.831,VALID,19.3352,VALID,333,VALID,0.264844,
2012-12-30, 07:49:04,VALID,915.563,VALID,0,VALID,97.0994,VALID,146.657,VALID,19.3728,VALID,333,VALID,0.139453,
2012-12-30, 07:50:04,VALID,915.532,VALID,0,VALID,97.1071,VALID,148.161,VALID,19.4132,VALID,333,VALID,0.376953,
2012-12-30, 07:51:04,VALID,915.501,VALID,0,VALID,97.1147,VALID,149.343,VALID,19.4132,VALID,333,VALID,0,
2012-12-30, 07:52:04,VALID,914.515,VALID,0,VALID,97.0918,VALID,149.666,VALID,19.3923,VALID,333,VALID,0.683203,
2012-12-30, 07:53:04,VALID,914.933,VALID,0,VALID,97.0918,VALID,149.988,VALID,19.3923,VALID,321,VALID,0,
2012-12-30, 07:54:04,VALID,916.031,VALID,0,VALID,97.0842,VALID,150.525,VALID,19.4118,VALID,321,VALID,0,
2012-12-30, 07:55:04,VALID,915.673,VALID,0,VALID,97.0842,VALID,151.17,VALID,19.4508,VALID,321,VALID,0.0046875,
2012-12-30, 07:56:04,VALID,915.627,VALID,0,VALID,97.069,VALID,151.922,VALID,19.4703,VALID,308,VALID,0.314063,
2012-12-30, 07:57:04,VALID,916.085,VALID,0,VALID,97.0613,VALID,153.211,VALID,19.5093,VALID,308,VALID,0,
2012-12-30, 07:58:04,VALID,917.53,VALID,0,VALID,97.0308,VALID,155.038,VALID,19.4703,VALID,297,VALID,0.65625,
2012-12-30, 07:59:04,VALID,915.789,VALID,0,VALID,96.9927,VALID,156.972,VALID,19.5498,VALID,297,VALID,0,
2012-12-30, 08:00:04,VALID,915.693,VALID,0,VALID,96.9927,VALID,158.691,VALID,19.5678,VALID,297,VALID,0,
2012-12-30, 08:01:04,VALID,915.74,VALID,0,VALID,96.9622,VALID,160.947,VALID,19.6068,VALID,297,VALID,0,
2012-12-30, 08:02:04,VALID,915.776,VALID,0,VALID,96.9317,VALID,163.525,VALID,19.6263,VALID,297,VALID,0.759375,
2012-12-30, 08:03:04,VALID,915.806,VALID,0,VALID,96.8326,VALID,165.352,VALID,19.5888,VALID,275,VALID,0.521875,
2012-12-30, 08:04:04,VALID,916.281,VALID,0,VALID,96.8021,VALID,168.145,VALID,19.5873,VALID,278,VALID,0.389844,
2012-12-30, 08:05:04,VALID,915.937,VALID,0,VALID,96.7716,VALID,171.584,VALID,19.6263,VALID,302,VALID,0.296875,
2012-12-30, 08:06:04,VALID,915.813,VALID,0,VALID,96.6039,VALID,174.377,VALID,19.6068,VALID,24,VALID,0.536328,
2012-12-30, 08:07:04,INVALID,913.685,VALID,0,VALID,96.421,VALID,174.699,VALID,19.6668,VALID,11,VALID,0.372266,
2012-12-30, 08:08:04,VALID,915.686,VALID,0,VALID,96.2228,VALID,174.807,VALID,19.7253,VALID,9,VALID,0.848828,
2012-12-30, 08:09:04,VALID,916.897,VALID,0,VALID,96.3752,VALID,176.203,VALID,19.8213,VALID,329,VALID,0.269141,
2012-12-30, 08:10:04,VALID,916.588,VALID,0,VALID,96.0169,VALID,177.385,VALID,19.8213,VALID,328,VALID,0.619922,
2012-12-30, 08:11:04,VALID,916.321,VALID,0,VALID,95.8645,VALID,178.89,VALID,19.8018,VALID,328,VALID,0.336719,
2012-12-30, 08:12:04,VALID,916.365,VALID,0,VALID,96.0474,VALID,179.212,VALID,19.8603,VALID,337,VALID,0.413672,
2012-12-30, 08:13:04,VALID,915.899,VALID,0,VALID,95.5748,VALID,179.642,VALID,19.9008,VALID,318,VALID,0.716406,
2012-12-30, 08:14:04,VALID,916.02,VALID,0,VALID,95.5824,VALID,180.931,VALID,19.9188,VALID,319,VALID,0.341797,
2012-12-30, 08:15:04,VALID,915.246,VALID,0,VALID,95.6053,VALID,183.402,VALID,19.9383,VALID,319,VALID,0,
2012-12-30, 08:16:04,VALID,916.22,VALID,0,VALID,95.3994,VALID,185.658,VALID,19.9578,VALID,316,VALID,0.491406,
2012-12-30, 08:17:04,VALID,916.122,VALID,0,VALID,95.4452,VALID,187.162,VALID,19.9968,VALID,355,VALID,0.453516,
2012-12-30, 08:18:04,VALID,916.161,VALID,0,VALID,95.2927,VALID,189.526,VALID,20.0163,VALID,355,VALID,0,
2012-12-30, 08:19:04,VALID,916.235,VALID,0,VALID,95.3003,VALID,193.072,VALID,20.0553,VALID,355,VALID,0.0988281,
2012-12-30, 08:20:04,VALID,915.834,VALID,0,VALID,95.3156,VALID,196.188,VALID,20.1139,VALID,355,VALID,0,
2012-12-30, 08:21:04,VALID,916.175,VALID,0,VALID,95.4604,VALID,198.444,VALID,20.1919,VALID,355,VALID,0.0015625,
2012-12-30, 08:22:04,VALID,916.271,VALID,0,VALID,95.2851,VALID,200.378,VALID,20.2519,VALID,355,VALID,0.0507813,
2012-12-30, 08:23:04,VALID,915.982,VALID,0,VALID,95.0106,VALID,201.989,VALID,20.2504,VALID,355,VALID,0,
2012-12-30, 08:24:04,VALID,916.023,VALID,0,VALID,94.6981,VALID,204.138,VALID,20.2114,VALID,355,VALID,0,
2012-12-30, 08:25:04,VALID,916.174,VALID,0,VALID,94.6295,VALID,207.147,VALID,20.2699,VALID,355,VALID,0,
2012-12-30, 08:26:04,VALID,916.242,VALID,0,VALID,94.881,VALID,209.08,VALID,20.3674,VALID,355,VALID,0.0679687,
2012-12-30, 08:27:04,VALID,915.692,VALID,0,VALID,94.5837,VALID,209.403,VALID,20.3869,VALID,355,VALID,0.0957031,
2012-12-30, 08:28:04,INVALID,918.885,VALID,0,VALID,94.477,VALID,204.461,VALID,20.4064,VALID,355,VALID,0,
2012-12-30, 08:29:04,VALID,916.215,VALID,0,VALID,94.3474,VALID,201.452,VALID,20.465,VALID,355,VALID,0.237891,
2012-12-30, 08:30:04,VALID,916.12,VALID,0,VALID,94.3855,VALID,201.13,VALID,20.4829,VALID,355,VALID,0,
2012-12-30, 08:31:04,VALID,916.402,VALID,0,VALID,94.2635,VALID,204.246,VALID,20.5625,VALID,355,VALID,0,
2012-12-30, 08:32:04,VALID,916.121,VALID,0,VALID,93.9967,VALID,209.94,VALID,20.5625,VALID,355,VALID,0.03125,
2012-12-30, 08:33:04,VALID,916.362,VALID,0,VALID,93.9205,VALID,212.733,VALID,20.6194,VALID,355,VALID,0.28125,
2012-12-30, 08:34:04,VALID,916.278,VALID,0,VALID,93.4402,VALID,215.957,VALID,20.66,VALID,355,VALID,0.0148437,
2012-12-30, 08:35:04,VALID,916.379,VALID,0,VALID,92.777,VALID,218.106,VALID,20.6405,VALID,324,VALID,0.198047,
2012-12-30, 08:36:04,VALID,916.51,VALID,0,VALID,92.6931,VALID,217.998,VALID,20.6795,VALID,305,VALID,0.06875,
2012-12-30, 08:37:04,VALID,916.172,VALID,0,VALID,92.5025,VALID,217.031,VALID,20.7185,VALID,305,VALID,0,
2012-12-30, 08:38:04,VALID,916.305,VALID,0,VALID,91.9079,VALID,218.75,VALID,20.699,VALID,305,VALID,0.155859,
2012-12-30, 08:39:04,VALID,916.265,VALID,0,VALID,91.5725,VALID,224.015,VALID,20.6975,VALID,305,VALID,0,
2012-12-30, 08:40:04,VALID,916.419,VALID,0,VALID,91.664,VALID,230.676,VALID,20.717,VALID,305,VALID,0,
2012-12-30, 08:41:04,VALID,916.388,VALID,0,VALID,91.2752,VALID,236.156,VALID,20.7591,VALID,305,VALID,0.260156,
2012-12-30, 08:42:04,VALID,915.822,VALID,0,VALID,90.9092,VALID,238.842,VALID,20.7185,VALID,305,VALID,0.219922,
2012-12-30, 08:43:04,VALID,916.416,VALID,0,VALID,91.1913,VALID,242.387,VALID,20.7396,VALID,306,VALID,0.153125,
2012-12-30, 08:44:04,VALID,915.643,VALID,0,VALID,91.6182,VALID,243.569,VALID,20.7787,VALID,306,VALID,0,
2012-12-30, 08:45:04,VALID,915.924,VALID,0,VALID,91.4962,VALID,242.602,VALID,20.8161,VALID,305,VALID,0.0765625,
2012-12-30, 08:46:04,VALID,916.201,VALID,0,VALID,90.9626,VALID,244.106,VALID,20.8356,VALID,306,VALID,0.333594,
2012-12-30, 08:47:04,VALID,916.405,VALID,0,VALID,90.4747,VALID,246.04,VALID,20.8551,VALID,306,VALID,0.269531,
2012-12-30, 08:48:04,INVALID,914.149,VALID,0,VALID,90.9092,VALID,248.726,VALID,20.8941,VALID,306,VALID,0.00703125,
2012-12-30, 08:49:04,VALID,916.362,VALID,0,VALID,90.4671,VALID,252.057,VALID,20.9527,VALID,3,VALID,0.504297,
2012-12-30, 08:50:04,VALID,916.486,VALID,0,VALID,89.3617,VALID,256.14,VALID,20.9722,VALID,358,VALID,0.425781,
2012-12-30, 08:51:04,VALID,916.628,VALID,0,VALID,88.4164,VALID,258.611,VALID,20.9917,VALID,338,VALID,0.337109,
2012-12-30, 08:52:04,VALID,916.433,VALID,0,VALID,87.3034,VALID,258.718,VALID,21.0096,VALID,356,VALID,1.01016,
2012-12-30, 08:53:04,VALID,916.724,VALID,0,VALID,87.5168,VALID,261.404,VALID,21.0502,VALID,301,VALID,0.56875,
2012-12-30, 08:54:04,VALID,917.512,VALID,0,VALID,87.959,VALID,264.09,VALID,21.0291,VALID,301,VALID,0.0761719,
2012-12-30, 08:55:04,VALID,916.698,VALID,0,VALID,88.5307,VALID,265.809,VALID,21.0876,VALID,301,VALID,0,
2012-12-30, 08:56:04,VALID,916.507,VALID,0,VALID,87.6617,VALID,267.636,VALID,21.1478,VALID,301,VALID,0.160156,
2012-12-30, 08:57:04,VALID,916.408,VALID,0,VALID,88.9195,VALID,268.066,VALID,21.2648,VALID,351,VALID,0.50625,
2012-12-30, 08:58:04,VALID,916.412,VALID,0,VALID,87.7684,VALID,270.859,VALID,21.2827,VALID,6,VALID,0.257031,
2012-12-30, 08:59:04,VALID,916.37,VALID,0,VALID,86.4953,VALID,273.115,VALID,21.3429,VALID,352,VALID,0.35,
2012-12-30, 09:00:04,VALID,916.914,VALID,0,VALID,84.9935,VALID,273.008,VALID,21.3429,VALID,241,VALID,0.569922,
2012-12-30, 09:01:04,VALID,916.399,VALID,0,VALID,85.9007,VALID,273.223,VALID,21.3234,VALID,287,VALID,0.799219,
2012-12-30, 09:02:04,VALID,916.495,VALID,0,VALID,86.9756,VALID,272.256,VALID,21.3038,VALID,290,VALID,0.530078,
2012-12-30, 09:03:04,VALID,916.392,VALID,0,VALID,86.2132,VALID,272.148,VALID,21.3038,VALID,290,VALID,0.0121094,
2012-12-30, 09:04:04,VALID,916.485,VALID,0,VALID,86.1446,VALID,272.148,VALID,21.3429,VALID,290,VALID,0.333203,
2012-12-30, 09:05:04,VALID,916.573,VALID,0,VALID,87.7303,VALID,272.256,VALID,21.3803,VALID,335,VALID,0.490234,
2012-12-30, 09:06:04,VALID,916.412,VALID,0,VALID,86.9451,VALID,273.438,VALID,21.4599,VALID,325,VALID,0,
2012-12-30, 09:07:04,VALID,916.607,VALID,0,VALID,89.0186,VALID,273.867,VALID,21.616,VALID,325,VALID,0.107031,
2012-12-30, 09:08:04,VALID,916.463,VALID,0,VALID,86.3504,VALID,275.479,VALID,21.6551,VALID,305,VALID,0.558594,
2012-12-30, 09:09:04,VALID,916.627,VALID,0,VALID,85.6948,VALID,274.19,VALID,21.6551,VALID,305,VALID,0.523047,
2012-12-30, 09:10:04,VALID,916.481,VALID,0,VALID,87.2043,VALID,272.256,VALID,21.6729,VALID,334,VALID,0.747656,
2012-12-30, 09:11:04,VALID,914.741,VALID,0,VALID,87.1204,VALID,276.339,VALID,21.7136,VALID,334,VALID,0.583984,
2012-12-30, 09:12:04,VALID,916.695,VALID,0,VALID,86.0912,VALID,278.165,VALID,21.7917,VALID,330,VALID,0.825,
2012-12-30, 09:13:04,VALID,917.369,VALID,0,VALID,86.198,VALID,274.082,VALID,21.8112,VALID,322,VALID,0.25,
2012-12-30, 09:14:04,INVALID,913.975,VALID,0,VALID,85.4661,VALID,274.942,VALID,21.829,VALID,340,VALID,0.159375,
2012-12-30, 09:15:04,VALID,917.345,VALID,0,VALID,85.9235,VALID,277.198,VALID,21.8697,VALID,21,VALID,0.123438,
2012-12-30, 09:16:04,VALID,916.652,VALID,0,VALID,86.0607,VALID,278.595,VALID,21.9283,VALID,280,VALID,0.365234,
2012-12-30, 09:17:04,VALID,916.75,VALID,0,VALID,83.85,VALID,279.562,VALID,21.9071,VALID,280,VALID,0.273047,
2012-12-30, 09:18:04,VALID,916.674,VALID,0,VALID,83.667,VALID,281.496,VALID,21.9087,VALID,280,VALID,0.455859,
2012-12-30, 09:19:04,INVALID,912.457,VALID,0,VALID,84.3988,VALID,282.785,VALID,21.9266,VALID,280,VALID,0.0335938,
2012-12-30, 09:20:04,VALID,912.975,VALID,0,VALID,85.5271,VALID,284.074,VALID,22.0047,VALID,326,VALID,0.561328,
2012-12-30, 09:21:04,INVALID,916.486,VALID,0,VALID,83.6365,VALID,286.653,VALID,22.0827,VALID,41,VALID,0.580078,
2012-12-30, 09:22:04,VALID,913.452,VALID,0,VALID,82.7903,VALID,289.124,VALID,22.0632,VALID,85,VALID,0.587891,
2012-12-30, 09:23:04,INVALID,916.385,VALID,0,VALID,84.597,VALID,291.273,VALID,22.1022,VALID,85,VALID,0.0105469,
2012-12-30, 09:24:04,VALID,916.598,VALID,0,VALID,82.0203,VALID,294.174,VALID,22.1022,VALID,290,VALID,1.07734,
2012-12-30, 09:25:04,VALID,916.515,VALID,0,VALID,83.4612,VALID,296.86,VALID,22.0047,VALID,330,VALID,0.638672,
2012-12-30, 09:26:04,VALID,916.136,VALID,0,VALID,85.1307,VALID,300.298,VALID,22.0047,VALID,339,VALID,0.587109,
2012-12-30, 09:27:04,VALID,916.201,VALID,0,VALID,83.0114,VALID,303.844,VALID,21.9656,VALID,305,VALID,0.699609,
2012-12-30, 09:28:04,VALID,916.413,VALID,0,VALID,84.719,VALID,307.819,VALID,21.9851,VALID,310,VALID,0.582422,
2012-12-30, 09:29:04,VALID,916.928,VALID,0,VALID,84.8029,VALID,313.406,VALID,22.0437,VALID,318,VALID,0.637109,
2012-12-30, 09:30:04,VALID,916.674,VALID,0,VALID,86.1751,VALID,320.39,VALID,22.1608,VALID,355,VALID,1.05664,
2012-12-30, 09:31:04,VALID,917.183,VALID,0,VALID,83.545,VALID,325.547,VALID,22.2193,VALID,352,VALID,1.40313,
2012-12-30, 09:32:04,VALID,917.573,VALID,0,VALID,83.1867,VALID,329.737,VALID,22.2193,VALID,345,VALID,0.435547,
2012-12-30, 09:33:04,VALID,916.785,VALID,0,VALID,85.3975,VALID,335.968,VALID,22.2583,VALID,356,VALID,0.664063,
2012-12-30, 09:34:04,VALID,914.976,VALID,0,VALID,83.5603,VALID,333.82,VALID,22.2371,VALID,310,VALID,0.589063,
2012-12-30, 09:35:04,VALID,916.693,VALID,0,VALID,83.7508,VALID,333.39,VALID,22.2779,VALID,300,VALID,0.247656,
2012-12-30, 09:36:04,VALID,916.885,VALID,0,VALID,85.3289,VALID,337.365,VALID,22.3347,VALID,355,VALID,0.655078,
2012-12-30, 09:37:04,VALID,916.586,VALID,0,VALID,83.7585,VALID,341.126,VALID,22.3754,VALID,6,VALID,0.794531,
2012-12-30, 09:38:04,VALID,916.683,VALID,0,VALID,85.1993,VALID,340.481,VALID,22.4713,VALID,342,VALID,0.830859,
2012-12-30, 09:39:04,VALID,917.425,VALID,0,VALID,85.3975,VALID,354.233,VALID,22.5511,VALID,22,VALID,1.1957,
2012-12-30, 09:40:04,VALID,916.904,VALID,0,VALID,82.3329,VALID,363.366,VALID,22.4713,VALID,14,VALID,1.43867,
2012-12-30, 09:41:04,VALID,916.573,VALID,0,VALID,83.5069,VALID,343.382,VALID,22.3754,VALID,22,VALID,1.77422,
2012-12-30, 09:42:04,VALID,916.722,VALID,0,VALID,83.6136,VALID,335.216,VALID,22.2957,VALID,21,VALID,1.65586,
2012-12-30, 09:43:04,VALID,916.722,VALID,0,VALID,84.9782,VALID,349.506,VALID,22.2779,VALID,15,VALID,1.00469,
2012-12-30, 09:44:04,VALID,916.58,VALID,0,VALID,85.5042,VALID,368.845,VALID,22.2779,VALID,5,VALID,0.688281,
2012-12-30, 09:45:04,VALID,916.555,VALID,0,VALID,86.8764,VALID,373.251,VALID,22.3559,VALID,32,VALID,0,
2012-12-30, 09:46:04,VALID,917.636,VALID,0,VALID,87.0137,VALID,383.672,VALID,22.5103,VALID,5,VALID,0,
2012-12-30, 09:47:04,INVALID,912.947,VALID,0,VALID,85.3899,VALID,375.829,VALID,22.6274,VALID,349,VALID,0,
2012-12-30, 09:48:04,VALID,916.665,VALID,0,VALID,84.7419,VALID,367.341,VALID,22.725,VALID,12,VALID,0,
2012-12-30, 09:49:04,VALID,916.775,VALID,0,VALID,84.6428,VALID,352.944,VALID,22.8226,VALID,19,VALID,0,
2012-12-30, 09:50:04,VALID,916.612,VALID,0,VALID,82.8284,VALID,346.82,VALID,22.9415,VALID,20,VALID,0,
2012-12-30, 09:51:04,VALID,916.636,VALID,0,VALID,82.5387,VALID,343.167,VALID,23.0178,VALID,20,VALID,0,
2012-12-30, 09:52:04,VALID,916.585,VALID,0,VALID,81.9517,VALID,331.778,VALID,23.0373,VALID,342,VALID,0,
2012-12-30, 09:53:04,VALID,916.654,VALID,0,VALID,80.4347,VALID,326.729,VALID,23.0391,VALID,215,VALID,0,
2012-12-30, 09:54:04,VALID,916.676,VALID,0,VALID,79.0167,VALID,328.877,VALID,23.0178,VALID,1,VALID,0,
2012-12-30, 09:55:04,VALID,916.668,VALID,0,VALID,80.206,VALID,354.341,VALID,22.9202,VALID,305,VALID,0,
2012-12-30, 09:56:04,VALID,916.912,VALID,0,VALID,83.5603,VALID,338.977,VALID,22.8634,VALID,22,VALID,0,
2012-12-30, 09:57:04,VALID,916.65,VALID,0,VALID,82.6531,VALID,323.183,VALID,22.9219,VALID,15,VALID,0,
2012-12-30, 09:58:04,VALID,916.794,VALID,0,VALID,82.4625,VALID,307.711,VALID,23,VALID,38,VALID,0,
2012-12-30, 09:59:04,VALID,916.667,VALID,0,VALID,82.3329,VALID,322.538,VALID,23.0586,VALID,38,VALID,0,
2012-12-30, 10:00:04,VALID,916.754,VALID,0,VALID,78.3992,VALID,359.82,VALID,23.0976,VALID,311,VALID,0,
2012-12-30, 10:01:04,VALID,915.722,VALID,0,VALID,79.9315,VALID,364.87,VALID,22.9983,VALID,311,VALID,0,
2012-12-30, 10:02:04,VALID,914.851,VALID,0,VALID,82.8513,VALID,367.019,VALID,23.0586,VALID,356,VALID,0,
2012-12-30, 10:03:04,VALID,915.94,VALID,0,VALID,83.2401,VALID,368.953,VALID,23.0976,VALID,39,VALID,0,
2012-12-30, 10:04:04,VALID,916.855,VALID,0,VALID,82.5235,VALID,361.862,VALID,23.1562,VALID,15,VALID,0,
2012-12-30, 10:05:04,VALID,915.377,VALID,0,VALID,81.4562,VALID,357.027,VALID,23.2343,VALID,34,VALID,0,
2012-12-30, 10:06:04,VALID,916.692,VALID,0,VALID,79.0243,VALID,356.49,VALID,23.1757,VALID,358,VALID,0,
2012-12-30, 10:07:04,VALID,915.762,VALID,0,VALID,78.8337,VALID,363.366,VALID,23.0391,VALID,4,VALID,0,
2012-12-30, 10:08:04,VALID,916.82,VALID,0,VALID,80.4347,VALID,359.391,VALID,22.8829,VALID,17,VALID,0,
2012-12-30, 10:09:04,VALID,916.654,VALID,0,VALID,82.8132,VALID,364.763,VALID,22.8048,VALID,360,VALID,0,
2012-12-30, 10:10:04,VALID,916.482,VALID,0,VALID,83.7737,VALID,375.399,VALID,22.8616,VALID,9,VALID,0,
2012-12-30, 10:11:04,VALID,916.763,VALID,0,VALID,81.4181,VALID,381.309,VALID,22.9024,VALID,297,VALID,0,
2012-12-30, 10:12:04,VALID,916.666,VALID,0,VALID,80.7091,VALID,372.606,VALID,22.9415,VALID,298,VALID,0,
2012-12-30, 10:13:04,VALID,916.696,VALID,0,VALID,80.8692,VALID,393.449,VALID,23.0195,VALID,298,VALID,0,
2012-12-30, 10:14:04,VALID,916.686,VALID,0,VALID,81.0445,VALID,390.549,VALID,23.0976,VALID,298,VALID,0,
2012-12-30, 10:15:04,VALID,916.6,VALID,0,VALID,81.441,VALID,429.013,VALID,23.1562,VALID,340,VALID,0,
2012-12-30, 10:16:04,VALID,916.837,VALID,0,VALID,81.3419,VALID,440.079,VALID,23.1171,VALID,38,VALID,0,
2012-12-30, 10:17:04,VALID,916.575,VALID,0,VALID,82.0127,VALID,458.451,VALID,23.0195,VALID,23,VALID,0,
2012-12-30, 10:18:04,INVALID,914.029,VALID,0,VALID,82.6302,VALID,464.038,VALID,23.0551,VALID,37,VALID,0,
2012-12-30, 10:19:04,VALID,916.603,VALID,0,VALID,81.0064,VALID,474.353,VALID,23.1952,VALID,37,VALID,0,
2012-12-30, 10:20:04,VALID,916.602,VALID,0,VALID,80.9073,VALID,483.7,VALID,23.3301,VALID,50,VALID,0,
2012-12-30, 10:21:04,VALID,916.574,VALID,0,VALID,78.1171,VALID,365.085,VALID,23.3887,VALID,235,VALID,0,
2012-12-30, 10:22:04,VALID,916.565,VALID,0,VALID,80.3279,VALID,396.028,VALID,23.3691,VALID,20,VALID,0,
2012-12-30, 10:23:04,VALID,916.575,VALID,0,VALID,78.788,VALID,459.418,VALID,23.3301,VALID,331,VALID,0,
2012-12-30, 10:24:04,VALID,916.625,VALID,0,VALID,81.4486,VALID,498.849,VALID,23.3496,VALID,12,VALID,0,
2012-12-30, 10:25:04,VALID,916.614,VALID,0,VALID,80.0382,VALID,401.722,VALID,23.3904,VALID,12,VALID,0,
2012-12-30, 10:26:04,VALID,916.649,VALID,0,VALID,80.2593,VALID,434.707,VALID,23.4472,VALID,15,VALID,0,
2012-12-30, 10:27:04,VALID,916.661,VALID,0,VALID,79.5275,VALID,452.757,VALID,23.4863,VALID,31,VALID,0,
2012-12-30, 10:28:04,VALID,916.7,VALID,0,VALID,79.3521,VALID,356.597,VALID,23.5253,VALID,51,VALID,0,
2012-12-30, 10:29:04,VALID,916.659,VALID,0,VALID,78.1553,VALID,330.167,VALID,23.5839,VALID,347,VALID,0,
2012-12-30, 10:30:04,VALID,916.698,VALID,0,VALID,78.7499,VALID,329.522,VALID,23.5448,VALID,15,VALID,0,
2012-12-30, 10:31:04,VALID,916.717,VALID,0,VALID,79.2454,VALID,342.63,VALID,23.4472,VALID,6,VALID,0,
2012-12-30, 10:32:04,VALID,916.682,VALID,0,VALID,78.8719,VALID,390.011,VALID,23.4277,VALID,47,VALID,0,
2012-12-30, 10:33:04,VALID,916.694,VALID,0,VALID,78.4602,VALID,326.299,VALID,23.4667,VALID,27,VALID,0,
2012-12-30, 10:34:04,VALID,916.702,VALID,0,VALID,80.1374,VALID,318.885,VALID,23.5058,VALID,27,VALID,0,
2012-12-30, 10:35:04,VALID,916.697,VALID,0,VALID,80.4499,VALID,393.772,VALID,23.6229,VALID,27,VALID,0,
2012-12-30, 10:36:04,VALID,916.692,VALID,0,VALID,79.5351,VALID,386.251,VALID,23.7205,VALID,27,VALID,0,
2012-12-30, 10:37:04,VALID,916.684,VALID,0,VALID,78.0409,VALID,342.093,VALID,23.6797,VALID,95,VALID,0,
2012-12-30, 10:38:04,VALID,916.7,VALID,0,VALID,78.0257,VALID,364.548,VALID,23.7596,VALID,95,VALID,0,
2012-12-30, 10:39:04,VALID,916.668,VALID,0,VALID,76.9508,VALID,403.549,VALID,23.8767,VALID,95,VALID,0,
2012-12-30, 10:40:04,VALID,916.672,VALID,0,VALID,76.8517,VALID,390.441,VALID,24.0134,VALID,85,VALID,0,
2012-12-30, 10:41:04,VALID,916.716,VALID,0,VALID,77.0575,VALID,389.152,VALID,24.111,VALID,85,VALID,0,
2012-12-30, 10:42:04,VALID,916.712,VALID,0,VALID,76.3028,VALID,336.398,VALID,24.0896,VALID,84,VALID,0,
2012-12-30, 10:43:04,VALID,916.678,VALID,0,VALID,76.1122,VALID,308.356,VALID,24.1677,VALID,84,VALID,0,
2012-12-30, 10:44:04,VALID,916.7,VALID,0,VALID,74.4274,VALID,330.059,VALID,24.1873,VALID,120,VALID,0,
2012-12-30, 10:45:04,VALID,916.719,VALID,0,VALID,76.5162,VALID,346.498,VALID,23.8749,VALID,251,VALID,1.43867,
2012-12-30, 10:46:04,VALID,916.673,VALID,0,VALID,78.2544,VALID,310.612,VALID,23.5839,VALID,281,VALID,1.04609,
2012-12-30, 10:47:04,VALID,916.651,VALID,0,VALID,78.262,VALID,281.926,VALID,23.465,VALID,267,VALID,0.0464844,
2012-12-30, 10:48:04,VALID,916.68,VALID,0,VALID,79.0777,VALID,281.711,VALID,23.5253,VALID,207,VALID,0,
2012-12-30, 10:49:04,VALID,916.689,VALID,0,VALID,79.9773,VALID,293.529,VALID,23.6034,VALID,339,VALID,0,
2012-12-30, 10:50:04,VALID,916.672,VALID,0,VALID,79.5961,VALID,301.587,VALID,23.6815,VALID,339,VALID,0,
2012-12-30, 10:51:04,VALID,916.68,VALID,0,VALID,80.7243,VALID,299.331,VALID,23.74,VALID,217,VALID,0,
2012-12-30, 10:52:04,VALID,916.712,VALID,0,VALID,78.4678,VALID,297.505,VALID,23.8377,VALID,218,VALID,0,
2012-12-30, 10:53:04,VALID,916.708,VALID,0,VALID,77.5606,VALID,294.496,VALID,23.8377,VALID,252,VALID,0,
2012-12-30, 10:54:04,VALID,916.682,VALID,0,VALID,79.2302,VALID,304.381,VALID,23.701,VALID,256,VALID,0,
2012-12-30, 10:55:04,VALID,916.704,VALID,0,VALID,79.6952,VALID,320.712,VALID,23.543,VALID,251,VALID,0,
2012-12-30, 10:56:04,VALID,916.681,VALID,0,VALID,80.6405,VALID,338.01,VALID,23.465,VALID,262,VALID,0,
2012-12-30, 10:57:04,VALID,916.701,VALID,0,VALID,81.5553,VALID,306.315,VALID,23.5058,VALID,232,VALID,0,
2012-12-30, 10:58:04,VALID,916.679,VALID,0,VALID,80.9149,VALID,276.446,VALID,23.504,VALID,232,VALID,0,
2012-12-30, 10:59:04,VALID,916.718,VALID,0,VALID,79.6266,VALID,251.842,VALID,23.5448,VALID,307,VALID,0,
2012-12-30, 11:00:04,VALID,916.682,VALID,0,VALID,80.2441,VALID,234.007,VALID,23.5643,VALID,328,VALID,0,
2012-12-30, 11:01:04,VALID,916.722,VALID,0,VALID,80.2212,VALID,204.89,VALID,23.6424,VALID,328,VALID,0,
2012-12-30, 11:02:04,VALID,916.675,VALID,0,VALID,80.3813,VALID,191.568,VALID,23.701,VALID,330,VALID,0,
2012-12-30, 11:03:04,VALID,916.686,VALID,0,VALID,79.9163,VALID,195.006,VALID,23.7791,VALID,327,VALID,0,
2012-12-30, 11:04:04,VALID,916.691,VALID,0,VALID,79.6495,VALID,213.378,VALID,23.8377,VALID,327,VALID,0,
2012-12-30, 11:05:04,VALID,916.716,VALID,0,VALID,80.3432,VALID,239.701,VALID,23.8163,VALID,327,VALID,0,